Location: Nairn
(57.5833°N, 3.8667°W)
Time: 04:21:13
(UTC+00:00)

Explorer 7 - Pass Details

Date: 02 December 2020
Orbit: 484 x 678 km, 50.3° (Epoch: 17 January)

Event Time Altitude Azimuth Distance (km) Brightness Sun altitude
Exits shadow 04:55:59 19° 154° (SSE) 1,336 9.0 -27.6°
Drops below altitude 10° 04:57:37 10° 136° (SE) 1,810 9.9 -27.4°
Sets 05:00:00 0° 124° (SE) 2,666 11.1 -27.1°
